Regional Weather Roundup
Issued by NWS

Home | Current Version | Previous Version | Text Only | Print | Product List | Glossary On
Versions: 1 2 3 4 5 6 7 8 9 10 11 12 13 14 15 16 17 18 19 20 21 22 23 24 25 26 27 28 29 30 31 32 33 34 35 36 37 38 39 40 41 42 43 44 45 46 47 48 49 50
000
ASUS43 KBIS 051202
RWRND

NORTH DAKOTA REGIONAL WEATHER ROUNDUP
NATIONAL WEATHER SERVICE BISMARCK ND
600 AM CST MON DEC 05 2022

NOTE: "FAIR" INDICATES FEW OR NO CLOUDS BELOW 12,000 FEET WITH NO
SIGNIFICANT WEATHER AND/OR OBSTRUCTIONS TO VISIBILITY.


NDZ001>003-009>011-017-051300-
NORTHWEST NORTH DAKOTA

CITY           SKY/WX    TMP DP  RH WIND       PRES   REMARKS
WILLISTON      CLOUDY    14   4  64 N15G22    29.90R WCI  -1
6HR MIN TEMP:  14; 6HR MAX TEMP:  21;

MINOT          CLOUDY    17   9  70 NW13      29.87R WCI   4
$$

NDZ018>021-031>035-040>046-051300-
SOUTHWEST NORTH DAKOTA

CITY           SKY/WX    TMP DP  RH WIND       PRES   REMARKS
BISMARCK       CLOUDY    22   6  50 NW15G25   29.89R WCI   9
6HR MIN TEMP:  20; 6HR MAX TEMP:  23;

DICKINSON      MOCLDY    16  12  84 W7        29.84S WCI   6
GARRISON         N/A     17   8  67 NW16G22   29.87R WCI   2
6HR MIN TEMP:  17; 6HR MAX TEMP:  21;

HETTINGER ARPT CLOUDY    21  12  68 NW8       29.87S WCI  11
$$

NDZ004>008-012>016-024-026-027-054-051300-
NORTHEAST NORTH DAKOTA

CITY           SKY/WX    TMP DP  RH WIND       PRES   REMARKS
GRAND FORKS    CLOUDY    19   9  65 NW17      29.80R WCI   4
GRND FRKS AFB  CLOUDY    18   8  65 NW16G22   29.80R WCI   3
DEVILS LAKE    CLOUDY    16   7  67 NW16      29.82R WCI   1
$$

NDZ022-023-025-028>030-036>039-047>053-051300-
SOUTHEAST NORTH DAKOTA

CITY           SKY/WX    TMP DP  RH WIND       PRES   REMARKS
FARGO          MOCLDY    20  14  77 NW10      29.81R WCI   9
6HR MIN TEMP:  17; 6HR MAX TEMP:  21;

JAMESTOWN      CLOUDY    22  15  75 NW15      29.81R WCI   9
$$




USA.gov is the U.S. government's official web portal to all federal, state and local government web resources and services.